Regional Weather Roundup
Issued by NWS

Home | Current Version | Previous Version | Text Only | Print | Product List | Glossary Off
Versions: 1 2 3 4 5 6 7 8 9 10 11 12 13 14 15 16 17 18 19 20 21 22 23 24 25 26 27 28 29 30 31 32 33 34 35 36 37 38 39 40 41 42 43 44 45 46 47 48 49 50

000
ASUS45 KSLC 211710
RWRUT

UTAH REGIONAL WEATHER ROUNDUP
NATIONAL WEATHER SERVICE SALT LAKE CITY UT
1100 AM MDT SUN SEP 21 2014

UTZ001>011-023>025-211800-

NORTHERN UTAH

CITY           SKY/WX    TMP DP  RH WIND       PRES   REMARKS
HILL AFB       CLOUDY    63  49  60 E15       30.19R
LOGAN          MOSUNNY   66  49  54 MISG      30.18S
OGDEN          CLOUDY    69  47  45 SE9       30.16F
PROVO AIRPORT  LGT RAIN  61  55  82 SE10      30.24R
SALT LAKE CITY CLOUDY    69  51  52 S13       30.16R
VERNAL         CLOUDY    64  46  52 N3        30.30F
WENDOVER       CLOUDY    63  55  77 NW7       30.18F
HEBER CITY     LGT RAIN  54  50  87 CALM      30.30R
WEST JORDAN    CLOUDY    66  55  68 SE12      30.20R

$$

UTZ012>022-026-027-211800-

SOUTHERN UTAH

CITY           SKY/WX    TMP DP  RH WIND       PRES   REMARKS
BRYCE CANYON   LGT RAIN  53  52  96 NE5       30.38S FOG
CEDAR CITY     PTSUNNY   60  55  83 CALM      30.24S
MILFORD        CLOUDY    63  55  75 E8        30.21F
MOAB/CYNLANDS  SUNNY     79  52  38 NE18      30.16R
PRICE          RAIN      62  56  80 CALM      30.30R
ST GEORGE      CLOUDY    72  61  68 CALM      30.12R
KANAB          CLOUDY    63  61  94 N5        30.26S

$$

REGIONAL REPORTS     COLORADO/ARIZONA

CITY           SKY/WX    TMP DP  RH WIND       PRES   REMARKS
CRAIG, CO      PTSUNNY   57  41  55 CALM      30.38R
GRAND JUNCTION CLOUDY    63  58  83 SE14      30.28R
RIFLE          LGT RAIN  61  51  70 CALM      30.38R
MONTROSE       PTSUNNY   65  57  75 N8        30.36F
CORTEZ         LGT RAIN  74  56  53 SE16G28   30.30S
PAGE, AZ       PTSUNNY   70  59  68 VRB3      30.19R
GRAND CANYON   MOSUNNY   69  56  62 SW12      30.31R
KINGMAN        MOSUNNY   83  50  31 E10       30.08R
FLAGSTAFF      PTSUNNY   64  54  69 S10       30.35R

$$

REGIONAL REPORTS    NEVADA/IDAHO/WYOMING

CITY           SKY/WX    TMP DP  RH WIND       PRES   REMARKS
LAS VEGAS, NV  MOSUNNY   81  57  43 CALM      29.99R
ELY            CLOUDY    57  50  77 N3        30.25R
ELKO           CLOUDY    59  53  80 NE3       30.18F
POCATELLO, ID  SUNNY     69  48  47 NE5       30.17R
BURLEY         CLOUDY    61  49  64 CALM      30.13S
EVANSTON, WY   CLOUDY    52  45  77 E12       30.36F
ROCK SPRINGS   CLOUDY    59  37  44 E13       30.37S

$$


USA.gov is the U.S. government's official web portal to all federal, state and local government web resources and services.